Regional Weather Roundup
Issued by NWS

Home | Current Version | Previous Version | Graphics & Text | Print | Product List | Glossary On
Versions: 1 2 3 4 5 6 7 8 9 10 11 12 13 14 15 16 17 18 19 20 21 22 23 24 25 26 27 28 29 30 31 32 33 34 35 36 37 38 39 40 41 42 43 44 45 46 47 48 49 50
000
ASUS43 KDTX 061010
RWRMI
MICHIGAN HOURLY REGIONAL WEATHER ROUNDUP
NATIONAL WEATHER SERVICE DETROIT/PONTIAC MI
500 AM EST FRI MAR 06 2015

NOTE: "FAIR" INDICATES FEW OR NO CLOUDS BELOW 12,000 FEET WITH NO
SIGNIFICANT WEATHER AND/OR OBSTRUCTION TO VISIBILITY.

MIZ047>049-052>055-059>063-066>070-074>076-081>083-061100-
SOUTHEAST LOWER MICHIGAN

CITY           SKY/WX    TMP DP  RH WIND       PRES   REMARKS
ADRIAN         PTCLDY    -3  -8  79 SW3       30.49F
ALMA           CLOUDY     4   1  88 SW7       30.43S
ANN ARBOR      MOCLDY    -5 -11  75 W3        30.46F
BAD AXE        MOCLDY    -3  -6  87 SW5       30.42S
DETROIT CITY   PTCLDY     8  -1  66 CALM      30.49S
DETROIT        MOCLDY     5  -1  76 S3        30.50S
FLINT          PTCLDY     3  -2  79 S9        30.45S
GROSSE ILE     MOCLDY     7   1  78 CALM      30.49S
HILLSDALE      PTCLDY     2  -2  83 CALM      30.43S
HOWELL         PTCLDY     3   0  87 S5        30.43F

CITY           SKY/WX    TMP DP  RH WIND       PRES   REMARKS
JACKSON        PTCLDY     0  -4  83 S5        30.44F
LAMBERTVILLE   PTCLDY     1  -4  78 CALM      30.51S
LANSING        PTCLDY     4   0  83 S6        30.44F
LAPEER         NOT AVBL
MASON            N/A     -2  -6  82 CALM      30.44F
MONROE         MOCLDY    -2  -8  78 CALM      30.48F
MT. CLEMENS    PTCLDY    -6 -11  81 S1        30.46F
PONTIAC        PTCLDY    -1  -7  75 CALM      30.43F
PORT HOPE        N/A      1  -5  75 SW7       30.40F
PORT HURON     MOCLDY   -13 -17  84 CALM      30.48S
TRI CITIES     MOCLDY     4  -1  80 S8        30.43F
YPSILANTI      MOCLDY     2  -7  66 VRB5      30.48F
$$
MIZ043>046-050>051-056>058-064>065-071>073-077>080-061100-
SOUTHWEST LOWER MICHIGAN

CITY           SKY/WX    TMP DP  RH WIND       PRES   REMARKS
BATTLE CREEK   MOCLDY     3  -2  79 SW7       30.43F
BENTON HARBOR  PTCLDY     3   0  87 S7        30.47F
BIG RAPIDS     CLOUDY    -4  -7  88 CALM      30.36F
COLDWATER      MOCLDY     2  -2  82 SW7       30.45F
HOLLAND        MOCLDY     4  -1  80 S7        30.44F
GRAND RAPIDS   PTCLDY     6   1  80 SW10      30.43F WCI  -9
KALAMAZOO      MOCLDY     0  -5  79 S6        30.45F
MARSHALL       MOCLDY     2  -1  85 S3        30.44F
MUSKEGON       CLOUDY    15   8  73 SW9       30.42F
$$
MIZ016>042-061100-
NORTHERN LOWER MICHIGAN

CITY           SKY/WX    TMP DP  RH WIND       PRES   REMARKS
ALPENA         PTCLDY     0  -6  76 S6        30.34F
BEAVER ISLAND  CLEAR      9   1  70 SW9       30.27F
BELLAIRE       PTCLDY    -6 -10  81 SW3       30.34F
CADILLAC       FLURRIES  -4  -9  79 CALM      30.28F
CHARLEVOIX     CLEAR      6   0  78 CALM      30.33F
FRANKFORT      SUNNY     16   7  69 W8        30.34F
GAYLORD        CLEAR      2  -1  88 SW10      30.25F WCI -14
GRAYLING       PTCLDY     2  -2  81 SW5       30.31S
HARBOR SPRINGS CLEAR     -3  -6  84 CALM      30.29F
HOUGHTON LAKE  PTCLDY     1  -3  83 SW6       30.32F
MANISTEE       PTCLDY     0  -6  78 E3        30.36S
OSCODA         PTCLDY     1  -4  82 SW8       30.38F
PELLSTON       PTCLDY     7  -1  70 SW8       30.29F
TRAVERSE CITY  PTCLDY     7   1  76 CALM      30.33F
$$
MIZ007>008-015-061100-
EASTERN UPPER MICHIGAN

CITY           SKY/WX    TMP DP  RH WIND       PRES   REMARKS
KINROSS        PTCLDY     1   1 100 SW6       30.24S
MACKINAC ISLAN PTCLDY     6  -1  70 SW10      30.26F WCI  -8
NEWBERRY       PTCLDY     0  -6  77 SW13      30.20F WCI -18
S. S. MARIE    PTCLDY    -7 -11  83 E5        30.23F
$$
MIZ004>006-011>014-085-061100-
CENTRAL UPPER MICHIGAN

CITY           SKY/WX    TMP DP  RH WIND       PRES   REMARKS
MANISTIQUE     PTCLDY     5  -4  65 SW8       30.24F
ESCANABA       PTCLDY     0  -9  65 SW6       30.26F
MENOMINEE      PTCLDY     1  -8  66 SW6       30.28F
SAWYER-GWINN   CLEAR     -2 -11  65 SW9       30.13F
$$
MIZ001>003-009>011-084-061100-
WESTERN UPPER MICHIGAN

CITY           SKY/WX    TMP DP  RH WIND       PRES   REMARKS
IRON MOUNTAIN  PTCLDY    -1 -10  65 S7        30.16F
HOUGHTON       PTCLDY     3  -7  63 SW5       30.05F
COPPER HARBOR    N/A      4  -9  55 SW12G20   30.07F WCI -12
IRONWOOD       CLEAR      7   0  72 SW14G23   30.03F WCI -10
$$

ABBREVIATIONS USED IN REMARKS
   TC - TEMPERATURE IN CELSIUS
  WCI - WIND CHILL INDEX
   HX - HEAT INDEX
  VSB - VISIBILITY




USA.gov is the U.S. government's official web portal to all federal, state and local government web resources and services.